User: anonymous
Location: Goheenville
(40.9070°N, 79.3720°W)
Time: 11:20:30
(UTC-04:00)
Language:

NOAA 11 - Orbit

View from above orbital plane
View from above orbital plane
View from above satellite
View from above satellite

Ground track
Ground track

The orbit data is extracted from the following two-line orbital elements,

1 19531U 88089A   14205.20506935  .00000032  00000-0  38357-4 0  8886
2 19531 098.6800 283.0805 0011373 186.8519 173.2501 14.15088203332976
Epoch (UTC): 24 July 2014 04:55:17
Eccentricity: 0.0011373
inclination: 98.6800°
perigee height: 834 km
apogee height: 850 km
right ascension of ascending node: 283.0805°
argument of perigee: 186.8519°
revolutions per day: 14.15088203
mean anomaly at epoch: 173.2501°
orbit number at epoch: 33297

The dashed part of the orbit path shows where the satellite is in the earth's shadow,  

DLR